Weather History for Miami, FL

Change the Weather History Date:

Tuesday, January 22, 2013

  Actual Average Record
Temperature  
Mean Temperature 71 °F 68 °F  
Max Temperature 78 °F 76 °F 86 °F (1990)
Min Temperature 63 °F 60 °F 30 °F (1985)
Degree Days  
Heating Degree Days 0 2  
Month to date heating degree days 4 44  
Since 1 July heating degree days 20 81  
Cooling Degree Days 6 5  
Month to date cooling degree days 206 110  
Year to date cooling degree days 206 110  
Growing Degree Days 21 (Base 50)    
Moisture  
Dew Point 59 °F    
Average Humidity 72    
Maximum Humidity 93    
Minimum Humidity 50    
Precipitation  
Precipitation 0.00 in 0.06 in 2.19 in (1936)
Month to date precipitation 0.54 1.12  
Year to date precipitation 0.54 1.12  
Snow  
Snow 0.00 in - - ()
Month to date snowfall 0.0  
Since 1 July snowfall 0.0  
Snow Depth 0.00 in    
Sea Level Pressure  
Sea Level Pressure 30.10 in    
Wind  
Wind Speed 7 mph (NW)    
Max Wind Speed 15 mph    
Max Gust Speed 20 mph    
Visibility 10 miles    
Events      
T = Trace of Precipitation, MM = Missing Value Source: NWS Daily Summary

Daily Weather History Graph

Daily Weather History Graph

Search for Another Location

Airport:

Trip Planner

Search our weather history database for the weather conditions in past years. The results will help you decide how hot, cold, wet, or windy it might be!

Date:

Astronomy

Jan. 22, 2013 Rise Set
Actual Time 7:08 AM EST 5:57 PM EST
Civil Twilight 6:44 AM EST 6:22 PM EST
Nautical Twilight 6:16 AM EST 6:50 PM EST
Astronomical Twilight 5:48 AM EST 7:17 PM EST
Moon 2:23 PM EST (1/22) 3:25 AM EST (1/22)
Length of Visible Light 11h 38m
Length of Day
10h 49m
Waxing Gibbous, 82% of the Moon is Illuminated
Jan 22
Waxing Gibbous
Jan 26
Full
Feb 3
Last Quarter
Feb 10
New
Feb 17
First Quarter

Hourly Weather History & Observations

Time (EST) Temp. Dew Point Humidity Pressure Visibility Wind Dir Wind Speed Gust Speed Precip Events Conditions
12:53 AM 66.9 °F 64.0 °F 90% 30.05 in 10.0 mi WNW 3.5 mph - N/A   Overcast
1:53 AM 66.0 °F 63.0 °F 90% 30.04 in 10.0 mi WNW 3.5 mph - N/A   Clear
2:04 AM 66.2 °F 62.6 °F 88% 30.05 in 10.0 mi West 4.6 mph - N/A   Scattered Clouds
2:24 AM 66.2 °F 62.6 °F 88% 30.04 in 10.0 mi WNW 5.8 mph - N/A   Overcast
2:53 AM 66.0 °F 63.0 °F 90% 30.03 in 10.0 mi WNW 5.8 mph - N/A   Overcast
3:23 AM 64.4 °F 62.6 °F 94% 30.03 in 10.0 mi NW 5.8 mph - N/A   Scattered Clouds
3:53 AM 64.9 °F 62.1 °F 90% 30.04 in 10.0 mi WNW 4.6 mph - N/A   Clear
4:09 AM 64.4 °F 62.6 °F 94% 30.04 in 10.0 mi WNW 3.5 mph - N/A   Partly Cloudy
4:22 AM 64.4 °F 62.6 °F 94% 30.04 in 10.0 mi NW 5.8 mph - N/A   Mostly Cloudy
4:53 AM 64.9 °F 62.1 °F 90% 30.04 in 10.0 mi NW 3.5 mph - N/A   Overcast
5:30 AM 64.4 °F 62.6 °F 94% 30.05 in 9.0 mi Calm Calm - N/A   Mostly Cloudy
5:53 AM 64.0 °F 61.0 °F 90% 30.06 in 9.0 mi Variable 4.6 mph - N/A   Mostly Cloudy
6:53 AM 64.0 °F 61.0 °F 90% 30.08 in 10.0 mi WNW 5.8 mph - N/A   Overcast
7:53 AM 64.0 °F 60.1 °F 87% 30.11 in 10.0 mi NNW 4.6 mph - N/A   Mostly Cloudy
8:53 AM 66.9 °F 59.0 °F 76% 30.12 in 10.0 mi Variable 5.8 mph - N/A   Mostly Cloudy
9:53 AM 70.0 °F 59.0 °F 68% 30.14 in 10.0 mi Variable 5.8 mph - N/A   Mostly Cloudy
10:53 AM 72.0 °F 57.9 °F 61% 30.14 in 10.0 mi NNW 10.4 mph 18.4 mph N/A   Mostly Cloudy
11:53 AM 73.9 °F 57.9 °F 57% 30.13 in 10.0 mi North 6.9 mph - N/A   Mostly Cloudy
12:53 PM 75.0 °F 57.9 °F 55% 30.11 in 10.0 mi North 8.1 mph 16.1 mph N/A   Mostly Cloudy
1:53 PM 75.9 °F 57.0 °F 52% 30.10 in 10.0 mi NNW 9.2 mph - N/A   Mostly Cloudy
2:53 PM 77.0 °F 57.0 °F 50% 30.09 in 10.0 mi North 9.2 mph 17.3 mph N/A   Mostly Cloudy
3:53 PM 75.0 °F 55.9 °F 51% 30.10 in 10.0 mi North 8.1 mph 16.1 mph N/A   Mostly Cloudy
4:53 PM 75.0 °F 55.9 °F 51% 30.12 in 10.0 mi Variable 6.9 mph 18.4 mph N/A   Mostly Cloudy
5:53 PM 72.0 °F 55.9 °F 57% 30.15 in 10.0 mi Variable 4.6 mph - N/A   Mostly Cloudy
6:53 PM 70.0 °F 55.9 °F 61% 30.16 in 10.0 mi North 10.4 mph 16.1 mph N/A   Mostly Cloudy
7:53 PM 69.1 °F 55.0 °F 61% 30.17 in 10.0 mi North 8.1 mph - N/A   Mostly Cloudy
8:53 PM 68.0 °F 54.0 °F 61% 30.19 in 10.0 mi NNW 8.1 mph - N/A   Mostly Cloudy
9:53 PM 66.9 °F 54.0 °F 63% 30.21 in 10.0 mi NNW 5.8 mph - N/A   Mostly Cloudy
10:53 PM 66.0 °F 54.0 °F 65% 30.21 in 10.0 mi North 6.9 mph - N/A   Mostly Cloudy
11:53 PM 64.9 °F 55.0 °F 70% 30.21 in 10.0 mi NNW 6.9 mph - N/A   Mostly Cloudy